Regional Weather Roundup
Issued by NWS State College, PA

Home | Current Version | Previous Version | Text Only | Print | Product List | Glossary On
Versions: 1 2 3 4 5 6 7 8 9 10 11 12 13 14 15 16 17 18 19 20 21 22 23 24 25 26 27 28 29 30 31 32 33 34 35 36 37 38 39 40 41 42 43 44 45 46 47 48 49 50
000
ASUS41 KCTP 301110
RWRCTP

REGIONAL WEATHER ROUNDUP
NATIONAL WEATHER SERVICE STATE COLLEGE PA
700 AM EDT MON MAR 30 2015

Note: "fair" indicates few or no clouds below 12,000 feet with no
significant weather and/or obstructions to visibility.

* = STATION THAT DOES NOT REPORT PRECIPITATION /E.G. RAIN...SNOW...ETC/
    THUNDER OR FOG.

PAZ002>004-007>009-013>016-020>023-029>032-301200-
WESTERN PENNSYLVANIA

CITY           SKY/WX    TMP DP  RH WIND       PRES   REMARKS
ERIE           CLOUDY    39  30  70 W21G33    29.79R
MEADVILLE      CLOUDY    37  30  75 W12G24    29.79R
FRANKLIN*      CLOUDY    37  30  75 W9G16     29.81R
NEW CASTLE     CLOUDY    40  34  79 SW12      29.85R
BEAVER COUNTY  CLOUDY    39  36  87 W9G16     29.84
BUTLER*        CLOUDY    39  36  87 W10       29.85R
PITTSBURGH INT MOCLDY    40  36  86 W13       29.85R
PITTSBURGH     CLOUDY    40  34  79 W13       29.85R
INDIANA*       CLOUDY    37  36  93 W13G18    29.85R
LATROBE        CLOUDY    37  37 100 SW14      29.87R
WASHINGTON CO* CLOUDY    41  36  81 SW9       29.88R
$$

PAZ004>006-010>012-017>019-024>028-033>037-041-042-045-046-049>053-301200-
CENTRAL PENNSYLVANIA

CITY           SKY/WX    TMP DP  RH WIND       PRES   REMARKS
BRADFORD       LGT RAIN  35  32  88 W12G18    29.69S
DUBOIS         CLOUDY    38  35  89 W17       29.75R
CLEARFIELD     CLOUDY    35  34  96 SW9       29.77R
JOHNSTOWN      LGT RAIN  36  33  89 SW15G28   29.78R FOG
ALTOONA        CLOUDY    38  33  82 S12       29.80F
STATE COLLEGE  CLOUDY    36  32  87 SW12      29.78S FOG
WILLIAMSPORT   CLOUDY    37  29  72 VRB5      29.81F
SELINSGROVE    CLOUDY    38  25  59 VRB5      29.84F
FT INDIANTOWN  CLOUDY    34  29  81 N2        29.88F
CAPITAL CITY   CLOUDY    40  21  46 SW9       29.88F
HARRISBURG     CLOUDY    38  26  62 SE5       29.88F
YORK           CLOUDY    39  22  50 S9        29.87F
$$

PAZ038>040-043-044-047-048-054-055-060>062-067>071-301200-
EASTERN PENNSYLVANIA

CITY           SKY/WX    TMP DP  RH WIND       PRES   REMARKS
SCRANTON       CLOUDY    37  25  61 S17G33    29.79F
MOUNT POCONO   CLOUDY    29  25  85 SW14      29.79F
ALLENTOWN      CLOUDY    36  26  67 S6        29.90F
QUAKERTOWN*    CLOUDY    36  25  64 S5        29.90F
READING        CLOUDY    37  25  61 S5        29.89F
LANCASTER      CLOUDY    38  24  57 SW7       29.89F
COATESVILLE    CLOUDY    36  27  69 S6        29.91F
POTTSTOWN      CLOUDY    37  26  64 SW7       29.92F
BLUE BELL      CLOUDY    36  32  87 S10       29.92F
DOYLESTOWN     CLOUDY    34  28  79 S7        29.90F
WILLOW GROVE   NOT AVBL
NORTH PHILA    MIX PCPN  37  29  72 S8        29.96F
PHILADELPHIA   CLOUDY    36  31  82 S15       29.96F
$$



USA.gov is the U.S. government's official web portal to all federal, state and local government web resources and services.